Regional Weather Roundup
Issued by NWS

Home | Current Version | Previous Version | Text Only | Print | Product List | Glossary On
Versions: 1 2 3 4 5 6 7 8 9 10 11 12 13 14 15 16 17 18 19 20 21 22 23 24 25 26 27 28 29 30 31 32 33 34 35 36 37 38 39 40 41 42 43 44 45 46 47 48 49 50
000
ASUS43 KMKX 281821
RWRWI

WISCONSIN REGIONAL WEATHER ROUNDUP
NATIONAL WEATHER SERVICE MILWAUKEE/SULLIVAN WI
100 PM CDT FRI AUG 28 2015

NOTE: "FAIR" INDICATES FEW OR NO CLOUDS BELOW 12,000 FEET WITH NO
SIGNIFICANT WEATHER AND/OR OBSTRUCTIONS TO VISIBILITY.

WIZ001-002-006>008-014>016-023>028-281900-
NORTHWEST WISCONSIN

CITY           SKY/WX    TMP DP  RH WIND       PRES   REMARKS
SUPERIOR ARPT  SUNNY     77  66  68 W10G20    29.96F
6HR MIN TEMP:  56; 6HR MAX TEMP:  77;

ASHLAND        MOSUNNY   76  66  71 SW13G21   29.99F
6HR MIN TEMP:  63; 6HR MAX TEMP:  77;

HAYWARD        MOSUNNY   72  63  73 SW8       30.03F
6HR MIN TEMP:  59; 6HR MAX TEMP:  72;

SIREN          MOSUNNY   76  62  62 S15G22    30.02S
6HR MIN TEMP:  61; 6HR MAX TEMP:  76;

CUMBERLAND     CLOUDY    70  63  78 SW8       30.04F
RICE LAKE      CLOUDY    69  62  79 S7        30.06F
6HR MIN TEMP:  57; 6HR MAX TEMP:  69;

CHETEK         CLOUDY   N/A N/A N/A MISG      30.06F
LADYSMITH      CLOUDY    68  62  82 S6        30.08F
6HR MIN TEMP:  59; 6HR MAX TEMP:  68;

EAU CLAIRE     CLOUDY    66  63  90 S10       30.03F
6HR MIN TEMP:  61; 6HR MAX TEMP:  66; 6HR PCP:  0.04;

MENOMONIE      DRIZZLE   66  64  93 NE3       30.03F
6HR MIN TEMP:  60; 6HR MAX TEMP:  67;

NEW RICHMOND   PTSUNNY   72  65  79 SE5       30.03F
6HR MIN TEMP:  59; 6HR MAX TEMP:  72;

OSCEOLA        PTSUNNY   75  64  70 SE10      30.04F
6HR MIN TEMP:  56; 6HR MAX TEMP:  75;

$$

WIZ003>005-009-010-017-018-281900-
NORTH CENTRAL WISCONSIN

CITY           SKY/WX    TMP DP  RH WIND       PRES   REMARKS
MANITOWISH WTR PTSUNNY   71  64  78 W12       30.04F
6HR MIN TEMP:  59; 6HR MAX TEMP:  71;

ARBOR VITAE    CLOUDY    72  64  76 SW9       30.05F
6HR MIN TEMP:  60; 6HR MAX TEMP:  72;

WOODRUFF       CLOUDY    72  64  76 SW9       30.05F
6HR MIN TEMP:  60; 6HR MAX TEMP:  72;

RHINELANDER    CLOUDY    71  61  70 W8        30.08F
6HR MIN TEMP:  60; 6HR MAX TEMP:  71;

EAGLE RIVER    CLOUDY    68  59  72 SW8       30.06F
6HR MIN TEMP:  59; 6HR MAX TEMP:  68;

LAND O LAKES   CLOUDY    69  61  75 SW6       30.06F
6HR MIN TEMP:  57; 6HR MAX TEMP:  69; 6HR PCP:  0.01;

PHILLIPS       MOSUNNY   68  62  80 SW8       30.06F
6HR MIN TEMP:  58; 6HR MAX TEMP:  68;

TOMAHAWK       CLOUDY    68  61  76 CALM      30.08F
6HR MIN TEMP:  56; 6HR MAX TEMP:  68;

MEDFORD        CLOUDY    63  61  91 SW6       30.09S
6HR MIN TEMP:  56; 6HR MAX TEMP:  64;

MERRILL        CLOUDY    68  62  82 SW6       30.09S
6HR MIN TEMP:  57; 6HR MAX TEMP:  68;

$$

WIZ029-030-035-036-043>047-281900-
CENTRAL WISCONSIN

CITY           SKY/WX    TMP DP  RH WIND       PRES   REMARKS
WAUSAU         CLOUDY    67  60  78 SW7       30.08S
6HR MIN TEMP:  60; 6HR MAX TEMP:  68;

MOSINEE        LGT RAIN  64  63  94 SW8       30.11S
MARSHFIELD     LGT RAIN  65  60  84 SW9       30.10S
6HR MIN TEMP:  57; 6HR MAX TEMP:  66; 6HR PCP: TRACE;

STEVENS POINT  CLOUDY    64  60  85 SW6       30.11S
6HR MIN TEMP:  56; 6HR MAX TEMP:  65;

WAUPACA        CLOUDY    69  61  77 S7        30.12S
6HR MIN TEMP:  59; 6HR MAX TEMP:  69;

WAUTOMA        CLOUDY    67  61  81 SW8       30.12F
6HR MIN TEMP:  55; 6HR MAX TEMP:  68;

WISC RAPIDS    LGT RAIN  65  60  84 SW7       30.12S
6HR MIN TEMP:  59; 6HR MAX TEMP:  66; 6HR PCP:  0.01;

CAMP DOUGLAS   LGT RAIN  64  64 100 VRB1      30.10F
                                      6HR PCP:  0.01;

$$

WIZ011>013-019>022-031-037>040-048>050-281900-
NORTHEAST WISCONSIN

CITY           SKY/WX    TMP DP  RH WIND       PRES   REMARKS
ANTIGO         CLOUDY    69  61  75 SW10      30.10R
SHAWANO        CLOUDY    72  61  68 SW7       30.09F
OCONTO         PTSUNNY   74  61  65 SW10G17   30.07F
6HR MIN TEMP:  57; 6HR MAX TEMP:  74;

STURGEON BAY   PTSUNNY   72  61  68 S13       30.10F
6HR MIN TEMP:  57; 6HR MAX TEMP:  73;

GREEN BAY      CLOUDY    70  61  73 SW10      30.10S
6HR MIN TEMP:  55; 6HR MAX TEMP:  72;

MANITOWOC      CLOUDY    69  60  73 MISG      30.11F
6HR MIN TEMP:  52; 6HR MAX TEMP:  70;

APPLETON       PTSUNNY   68  57  68 S8        30.09F
CLINTONVILLE   CLOUDY    68  59  73 SW10      30.09F
OSHKOSH        CLOUDY    68  59  73 SW9       30.11F
6HR MIN TEMP:  54; 6HR MAX TEMP:  69;

$$

WIZ032>034-041-042-053>061-281900-
SOUTHWEST WISCONSIN

CITY           SKY/WX    TMP DP  RH WIND       PRES   REMARKS
LA CROSSE      RAIN      65  63  93 SE6       30.07F FOG
6HR MIN TEMP:  64; 6HR MAX TEMP:  66; 6HR PCP:  0.14;

SPARTA         LGT RAIN  65  62  91 CALM      30.10F
6HR MIN TEMP:  59; 6HR MAX TEMP:  65; 6HR PCP:  0.04;

VIROQUA        CLOUDY    62  62 100 SE5       30.11F
6HR MIN TEMP:  61; 6HR MAX TEMP:  63; 6HR PCP:  0.11;

BOSCOBEL       RAIN      65  63  93 CALM      30.11S FOG
6HR MIN TEMP:  60; 6HR MAX TEMP:  66; 6HR PCP:  0.08;

PRAIRIE DU CHI LGT RAIN  63  60  91 E10       30.07F
6HR MIN TEMP:  63; 6HR MAX TEMP:  64; 6HR PCP:  0.22;

PLATTEVILLE    CLOUDY    64  63  95 E5        30.10F
6HR MIN TEMP:  60; 6HR MAX TEMP:  64;

$$

WIZ056-057-062-063-064-067-068-281900-
SOUTH CENTRAL WISCONSIN

CITY           SKY/WX    TMP DP  RH WIND       PRES   REMARKS
REEDSBURG      DRIZZLE   63  60  90 S5        30.12S
6HR MIN TEMP:  58; 6HR MAX TEMP:  64;

BARABOO/DELLS  CLOUDY    65  58  77 S3        30.12S
6HR MIN TEMP:  59; 6HR MAX TEMP:  65;

LONE ROCK      LGT RAIN  65  61  87 E3        30.13S
6HR MIN TEMP:  59; 6HR MAX TEMP:  65; 6HR PCP:  0.01;

MINERAL POINT  LGT RAIN  64  61  88 E5        30.12F
MADISON        LGT RAIN  66  59  78 S5        30.12F
6HR MIN TEMP:  60; 6HR MAX TEMP:  66; 6HR PCP: TRACE;

MIDDLETON      CLOUDY    68  60  76 SE6       30.13S
6HR MIN TEMP:  58; 6HR MAX TEMP:  68;

WATERTOWN      CLOUDY    68  63  83 SW5       30.12F
6HR MIN TEMP:  52; 6HR MAX TEMP:  68;

MONROE         CLOUDY    64  59  82 CALM      30.13S
JANESVILLE     CLOUDY    70  61  73 CALM      30.12F
$$

WIZ051-052-058>065-066-070>072-281900-
SOUTHEAST WISCONSIN

CITY           SKY/WX    TMP DP  RH WIND       PRES   REMARKS
MILWAUKEE      CLOUDY    73  59  61 SW10      30.13S
6HR MIN TEMP:  60; 6HR MAX TEMP:  74;

WAUKESHA       LGT RAIN  68  61  77 S5        30.14F
MILWAUKEE/TIMM SUNNY     72  57  60 W7        30.14S
RACINE         CLOUDY    72  59  63 SE6       30.14F
6HR MIN TEMP:  59; 6HR MAX TEMP:  73;

BURLINGTON     CLOUDY    68  59  73 S3        30.13F
6HR MIN TEMP:  52; 6HR MAX TEMP:  69;

KENOSHA        CLOUDY    74  60  61 SW6       30.13F
6HR MIN TEMP:  57; 6HR MAX TEMP:  74;

FOND DU LAC    CLOUDY    69  60  73 SW9       30.12F
6HR MIN TEMP:  54; 6HR MAX TEMP:  71;

SHEBOYGAN      CLOUDY    71  62  73 VRB6      30.11F
6HR MIN TEMP:  54; 6HR MAX TEMP:  72;

WEST BEND      CLOUDY    70  59  68 CALM      30.13S
JUNEAU         CLOUDY    67  60  79 SW6       30.13F
6HR MIN TEMP:  53; 6HR MAX TEMP:  67;

$$

LSZ147-162-281900-
LAKE SUPERIOR

STATION/POSITION TIME  TEMP    WIND        PRES    WAVE
                       AIR SEA DIR/SP/G            HT/PER
                 (UTC) (F)     (DEG/KT/KT) (MB)    (FT/S)
W MID LAKE BUOY  1750   59 56  200/ 10/ 10 1014.9F   1
DEVILS ISLAND    1800   61     210/  4/  6 1015.0F
PORT WING        1800   70     290/ 11/ 22 1014.6
SAXON HARBOR     1740   74     200/  6/ 10 1015.6R
$$

LMZ867-665-643>646-281900-
LAKE MICHIGAN

STATION/POSITION TIME  TEMP    WIND        PRES    WAVE
                       AIR SEA DIR/SP/G            HT/PER
                 (UTC) (F)     (DEG/KT/KT) (MB)    (FT/S)
CHAMBERS ISLAND  1700   67     190/  9/ 14 1018.6F



USA.gov is the U.S. government's official web portal to all federal, state and local government web resources and services.